User: anonymous   Login
Location: Unspecified
(0.0000°N, 0.0000°E)
Time: 05:28:10
(UTC+01:00)
Language:

ARIANE 5 R/B - Orbit

View from above orbital plane
View from above orbital plane
View from above satellite
View from above satellite

Ground track
Ground track

The orbit data is extracted from the following two-line orbital elements,

1 27510U 02040C   17053.42446887 -.00000274 +00000-0 -75344-3 0  9991
2 27510 004.9605 257.6481 7167979 243.4652 010.2730 02.27197149120273
Epoch (UTC): 22 February 2017 10:11:14
Eccentricity: 0.7167979
inclination: 4.9605°
perigee height: 544 km
apogee height: 35583 km
right ascension of ascending node: 257.6481°
argument of perigee: 243.4652°
revolutions per day: 2.27197149
mean anomaly at epoch: 10.2730°
orbit number at epoch: 12027

The dashed part of the orbit path shows where the satellite is in the earth's shadow,  

DLR